Regional Weather Roundup
Issued by NWS Charleston, SC

Current Version | Previous Version | Text Only | Print | Product List | Glossary Off
Versions: 1 2 3 4 5 6 7 8 9 10 11 12 13 14 15 16 17 18 19 20 21 22 23 24 25 26 27 28 29 30 31 32 33 34 35 36 37 38 39 40 41 42 43 44 45 46 47 48 49 50

000
ASUS42 KCHS 180510
RWRCHS
REGIONAL WEATHER ROUNDUP
NATIONAL WEATHER SERVICE CHARLESTON SC
100 AM EDT THU SEP 18 2014

NOTE: "FAIR" INDICATES FEW OR NO CLOUDS BELOW 12,000 FEET WITH NO
SIGNIFICANT WEATHER AND/OR OBSTRUCTIONS TO VISIBILITY.

NOT ALL STATIONS ARE QUALITY CONTROLLED BY THE NATIONAL
WEATHER SERVICE. USE DATA WITH CAUTION...ESPECIALLY
DEWPOINT OBSERVATIONS.

SCZ027-030-031-034>040-042>050-180600-
...SOUTH CAROLINA...

CITY           SKY/WX    TMP DP  RH WIND       PRES   REMARKS
N CHARLESTON   PTCLDY    72  68  87 CALM      29.92S
WATERFRONT PRK   N/A     75 N/A N/A W3          N/A
FORT JOHNSON   NOT AVBL
MOUNT PLEASANT FAIR      70  70 100 CALM      29.91F FOG
JOHNS ISLAND   PTCLDY    72  72 100 CALM      29.92S
PINOPOLIS        N/A     73  70  88 MISG      29.85S
MONCKS CORNER    N/A     70  70 100 CALM      29.92F FOG
SUMMERVILLE    FAIR      68  68 100 CALM      29.93F
BEAUFORT MCAS  MOCLDY    71  69  93 CALM      29.92F
BEAUFORT ARPT  FAIR      72  72 100 CALM      29.92S
HILTON HEAD IS TSTM      70  70 100 CALM      29.92F
GEORGETOWN     NOT AVBL
WALTERBORO     MOCLDY    70 N/A N/A CALM      29.93S
ORANGEBURG     PTCLDY    70  67  90 CALM      29.93F
BARNWELL       FAIR      68  68 100 CALM      29.93F
AIKEN          FAIR      68  68 100 CALM      29.97F FOG
MANNING        FAIR      70 N/A N/A CALM      29.93F
KINGSTREE      NOT AVBL
COLUMBIA       PTCLDY    71  67  87 CALM      29.93F
SUMTER         MOCLDY    70  66  85 CALM      29.92S
FLORENCE       MOCLDY    70  67  90 CALM      29.92S
MYRTLE BEACH   CLOUDY    73  68  83 N5        29.91F
N MYRTLE BEACH MOCLDY    72  68  87 NE8       29.90F

$$

GAZ063-065-086>088-099>101-113>116-118-119-134-136>141-150-180600-
...GEORGIA...

CITY           SKY/WX    TMP DP  RH WIND       PRES   REMARKS
SAVANNAH ARPT  MOCLDY    73  68  83 N3        29.91F
HUNTER AAF     DRIZZLE   73  72  94 N7        29.89F
FORT STEWART   PTCLDY    73  72  96 N2        29.90S
STATESBORO     NOT AVBL
SYLVANIA       MOCLDY    71  71  99 CALM      29.93S FOG
CLAXTON        FAIR      72  72 100 CALM      29.92S
THOMSON        MOCLDY    71  71 100 CALM      29.99S
AUGUSTA-BUSH   FOG       66  66 100 CALM      29.92F VSB 1/4
AUGUSTA-DANIEL CLEAR     71  69  93 CALM      29.94F
SWAINSBORO     FAIR      72  72 100 E3        29.93S
VIDALIA        PTCLDY    72  72 100 E5        29.92S
ALMA           CLEAR     71  68  90 CALM      29.91S
WAYCROSS       CLEAR     74  73  96 CALM      29.91S
JESUP          FAIR      73  72  94 CALM      29.92S FOG
BRUNSWICK      MOCLDY    72  68  88 CALM      29.91F
SAINT SIMONS   CLOUDY    74  71  91 W3        29.90F

$$

SCZ027-028-034-036>038-045-046-048>050-GAZ119-141-180600-
...LAKE AND SUPPLEMENTAL COASTAL OBSERVATIONS...

STATION/POSITION TIME  TEMP    WIND        PRES    WAVE   SWELL
                       AIR SEA DIR/SP/G            HT/PER HT/PER/DIR
                 (UTC) (F)     (DEG/KT/KT) (MB)    (FT/S) (FT/S/D)
UPR LAKE MARION  NOT AVBL
WINYAH BAY       0400   72     300/  4     1013.0S
LAKE MURRAY      0400   69      CALM  /  2 1013.5S
ACE BASIN NERRS  0400   72     340/  1     1013.0S
FORT PULASKI     0500   74     350/  4/  5 1012.8F
SAPELO ISLAND    0400   79     190/  7     1013.0S

$$

ANZ835-935-AMZ111-154-330-350-352-354-374-450-454-472-180600-
...C-MAN AND BUOY OBSERVATIONS...

STATION/POSITION TIME  TEMP    WIND        PRES    WAVE   SWELL
                       AIR SEA DIR/SP/G            HT/PER HT/PER/DIR
                 (UTC) (F)     (DEG/KT/KT) (MB)    (FT/S) (FT/S/D)
FOLLY BEACH CMAN 0400   75     330/  3/  4 1013.5S
BUOY 41004       0500   81 83   20/  4/  6 1012.2F   4/13   3/13
BUOY 41008       0500   82 84  170/  8/ 10 1012.4F   3/13   3/ 90/13
5E ST. MARYS GA  0500      84                N/A     2/13   2/100/13
FRYING PAN BUOY  NOT AVBL
BUOY 41025       0500   75      20/ 17/ 21 1012.0F   6/12   3/ 80/12
CAPE LOOKOUT NC  0400   76      50/ 17/ 18 1012.7F
BUOY 41002       0442   78 82  350/  6/  8 1011.4F   5/11   5/ 90/11
BUOY 41010       0500   81 85  350/  6/  8 1012.4S   4/13   3/ 40/13
BUOY 41012       NOT AVBL
ST AUGUSTINE FL  0500   74     250/  4/  5 1013.6F
CAPERS NEARSHORE 0400   77      20/  8/  8   N/A
FRIPP NEARSHORE  NOT AVBL


$$


USA.gov is the U.S. government's official web portal to all federal, state and local government web resources and services.